This is the latest recevied weather packets stored in our database for station/object EA2MKR. If no packets are shown the sender has not sent any weather packets the latest 1 day(s).
| Time | Temp. | Humidity | Pressure | Rain* | Wind** | Luminosity | Snow |
|---|---|---|---|---|---|---|---|
| 1778099971 | 8.89° C | 85% | 951 hPa | 0 mm | - | - | - |
| 1778099671 | 8.89° C | 84% | 950.9 hPa | 0 mm | - | - | - |
| 1778097266 | 9.44° C | 83% | 950.7 hPa | 0 mm | - | - | - |
| 1778096666 | 9.44° C | 82% | 950.7 hPa | 0 mm | - | - | - |
| 1778096366 | 10° C | 81% | 950.7 hPa | 0 mm | - | - | - |
| 1778096066 | 10° C | 81% | 950.6 hPa | 0 mm | - | - | - |
| 1778094865 | 10.56° C | 77% | 950.4 hPa | 0 mm | - | - | - |
| 1778093749 | 11.67° C | 76% | 950.3 hPa | 0 mm | - | - | - |
| 1778093064 | 11.67° C | 76% | 950.3 hPa | 0 mm | - | - | - |
| 1778092164 | 12.22° C | 72% | 950.2 hPa | 0 mm | - | - | - |
| 1778091864 | 12.78° C | 71% | 950.1 hPa | 0 mm | - | - | - |
| 1778090963 | 12.78° C | 72% | 950.1 hPa | 0 mm | - | - | - |
| 1778090440 | 12.22° C | 75% | 950.2 hPa | 0 mm | - | - | - |
| 1778090063 | 12.22° C | 77% | 950.1 hPa | 0 mm | - | - | - |
| 1778089163 | 11.67° C | 76% | 950.1 hPa | 0 mm | - | - | - |
| 1778087963 | 12.22° C | 72% | 950.1 hPa | 0 mm | - | - | - |
| 1778087662 | 12.78° C | 72% | 950.2 hPa | 0 mm | - | - | - |
| 1778087362 | 13.33° C | 71% | 950.1 hPa | 0 mm | - | - | - |
| 1778086162 | 13.89° C | 68% | 950 hPa | 0 mm | - | - | - |
| 1778084361 | 13.33° C | 73% | 949.9 hPa | 0 mm | - | - | - |
| 1778082261 | 12.78° C | 78% | 950.1 hPa | 0 mm | - | - | - |
| 1778081960 | 12.22° C | 82% | 950.1 hPa | 0 mm | - | - | - |
| 1778081660 | 12.22° C | 82% | 950.2 hPa | 0 mm | - | - | - |
| 1778081060 | 12.22° C | 80% | 950.3 hPa | 0 mm | - | - | - |
| 1778080760 | 12.22° C | 80% | 950.3 hPa | 0 mm | - | - | - |
* Rain latest hour (hover to see other rain measurements)
** Current wind speed in m/s (hover to see current wind gust speed)